Starlink 31298

operational
NORAD ID: 59167 Int'l Des: 2024-044 Owner: SPXS Country: US Constellation: starlink
LEOCIRCULAR

关于 Starlink 31298

正在加载描述...

实时位置

正在加载3D地球...

即将过境

高度历史

Altitude vs Time

uPlot chart will show altitude changes over time

两行轨道根数

1 59167U 24044R 25258.30926116 -.00008327 00000-0 -29277-3 0 9994
2 59167 43.0005 17.4650 0002958 295.7566 64.2981 15.27643582 86747
Epoch: Sep 15, 2025 • Age: 5 hours

当前状态

高度 483.4 km
速度 7.63 km/s
星下点 13.13°N, 5.39°W
发射日期 Mar 4, 2024
运行时间 1.5 years
类型 internet

技术详情

分类 Payload
质量 730.00 kg
干质量 700.00 kg
总质量 730.00 kg
长度 0.30 m
直径 4.10 m
跨度 29.00 m
形状 Box + pan
制造商 SPXS
平台类型 Starlink V2M
阶段状态 In Orbit
所有者/国家 SPXS/US

大型星座

Loading constellations...